TimeCDT,TemperatureF,Dew PointF,Humidity,Sea Level PressureIn,VisibilityMPH,Wind Direction,Wind SpeedMPH,Gust SpeedMPH,PrecipitationIn,Events,Conditions,WindDirDegrees,DateUTC
12:51 AM,69.1,61.0,75,30.09,10.0,NE,8.1,-,N/A,,Clear,50,2012-10-09 05:51:00
1:51 AM,68.0,61.0,78,30.08,10.0,NE,8.1,-,N/A,,Clear,50,2012-10-09 06:51:00
2:51 AM,68.0,61.0,78,30.07,10.0,NE,8.1,-,N/A,,Clear,40,2012-10-09 07:51:00
3:51 AM,69.1,62.1,78,30.06,10.0,NE,5.8,-,N/A,,Clear,50,2012-10-09 08:51:00
4:51 AM,69.1,63.0,81,30.07,10.0,NE,5.8,-,N/A,,Clear,50,2012-10-09 09:51:00
5:51 AM,69.1,63.0,81,30.08,10.0,NNE,6.9,-,N/A,,Partly Cloudy,30,2012-10-09 10:51:00
6:51 AM,68.0,63.0,84,30.09,10.0,NE,6.9,-,N/A,,Clear,40,2012-10-09 11:51:00
7:51 AM,70.0,64.0,81,30.10,10.0,NNE,6.9,-,N/A,,Clear,30,2012-10-09 12:51:00
8:51 AM,71.1,64.0,78,30.12,10.0,NNE,4.6,-,N/A,,Clear,20,2012-10-09 13:51:00
9:51 AM,71.1,64.0,78,30.13,8.0,NE,5.8,-,N/A,,Mostly Cloudy,40,2012-10-09 14:51:00
10:51 AM,73.9,64.9,73,30.13,10.0,NNE,6.9,-,N/A,,Mostly Cloudy,30,2012-10-09 15:51:00
11:09 AM,73.4,64.4,73,30.13,10.0,NNE,8.1,-,N/A,,Mostly Cloudy,30,2012-10-09 16:09:00
11:51 AM,75.0,66.0,73,30.12,10.0,Variable,5.8,-,N/A,,Mostly Cloudy,0,2012-10-09 16:51:00
12:51 PM,75.0,66.0,73,30.10,10.0,NNE,6.9,-,N/A,,Mostly Cloudy,20,2012-10-09 17:51:00
1:51 PM,73.9,64.9,73,30.08,10.0,Variable,5.8,-,N/A,,Mostly Cloudy,0,2012-10-09 18:51:00
2:05 PM,73.4,64.4,73,30.08,10.0,NNE,8.1,-,N/A,,Mostly Cloudy,30,2012-10-09 19:05:00
2:30 PM,73.4,64.4,73,30.07,10.0,NE,5.8,-,N/A,,Scattered Clouds,40,2012-10-09 19:30:00
2:51 PM,73.9,64.0,71,30.06,10.0,NNE,6.9,-,N/A,,Scattered Clouds,30,2012-10-09 19:51:00
3:51 PM,73.0,64.0,73,30.05,10.0,East,6.9,-,N/A,,Partly Cloudy,80,2012-10-09 20:51:00
4:51 PM,73.0,63.0,71,30.05,10.0,ENE,5.8,-,N/A,,Clear,60,2012-10-09 21:51:00
5:51 PM,71.1,63.0,75,30.05,10.0,ENE,5.8,-,N/A,,Clear,60,2012-10-09 22:51:00
6:11 PM,71.6,62.6,73,30.05,6.0,NNE,3.5,-,N/A,,Haze,30,2012-10-09 23:11:00
6:51 PM,70.0,63.0,78,30.05,10.0,NE,3.5,-,N/A,,Mostly Cloudy,50,2012-10-09 23:51:00
7:35 PM,69.8,62.6,78,30.06,10.0,ESE,4.6,-,N/A,,Mostly Cloudy,110,2012-10-10 00:35:00
7:47 PM,69.8,62.6,78,30.06,10.0,ESE,5.8,-,N/A,,Scattered Clouds,110,2012-10-10 00:47:00
7:51 PM,69.1,63.0,81,30.06,10.0,ESE,4.6,-,N/A,,Partly Cloudy,110,2012-10-10 00:51:00
8:51 PM,68.0,64.0,87,30.06,10.0,ESE,4.6,-,N/A,,Clear,110,2012-10-10 01:51:00
9:29 PM,69.8,64.4,83,30.08,10.0,Calm,Calm,-,N/A,,Mostly Cloudy,0,2012-10-10 02:29:00
9:37 PM,69.8,64.4,83,30.08,10.0,Calm,Calm,-,N/A,,Scattered Clouds,0,2012-10-10 02:37:00
9:51 PM,68.0,63.0,84,30.09,10.0,Calm,Calm,-,N/A,,Partly Cloudy,0,2012-10-10 02:51:00
10:51 PM,68.0,64.0,87,30.09,10.0,East,3.5,-,N/A,,Clear,100,2012-10-10 03:51:00
11:19 PM,69.8,64.4,83,30.08,10.0,East,3.5,-,N/A,,Mostly Cloudy,100,2012-10-10 04:19:00
11:46 PM,69.8,64.4,83,30.08,10.0,East,3.5,-,N/A,,Scattered Clouds,90,2012-10-10 04:46:00
11:51 PM,69.1,64.9,87,30.08,10.0,East,4.6,-,N/A,,Partly Cloudy,80,2012-10-10 04:51:00